When you browse on this site, cookies collect data to enhance your experience and personalize the content and advertising you see.
Visit our Privacy Policy to learn more. By continuing to use the site, you agree to this use of cookies and data.
  • In Latvia
  • List of Countries
  • For 7 days
  • Water Temperature
  • Satellite Maps
  • Weather Map
  • Weather Widgets
  • user-avatar
    Login

    Hourly Weather Canberra

    Today, 22 March, Friday

    Time Temperature Precipitation Wind Pressure Humidity
    00:00 +19°C° 0 mm 1 mps 710 mmHg 95%
    01:00 +18°C° 0 mm 1 mps 710 mmHg 95%
    02:00 +18°C° 0 mm 1 mps 710 mmHg 94%
    03:00 +18°C° 0 mm 1 mps 710 mmHg 94%
    04:00 +19°C° 0 mm 1 mps 710 mmHg 93%
    05:00 +19°C° 0 mm 1 mps 710 mmHg 92%
    06:00 +19°C° 0 mm 1 mps 710 mmHg 91%
    07:00 +19°C° 0 mm 1 mps 710 mmHg 90%
    08:00 +20°C° 0 mm 1 mps 711 mmHg 86%
    09:00 +21°C° 0 mm 1 mps 711 mmHg 81%
    10:00 +22°C° 0 mm 1 mps 711 mmHg 74%
    11:00 +23°C° 0.2 mm 1 mps 711 mmHg 72%
    12:00 +23°C° 0.2 mm 1 mps 711 mmHg 69%
    13:00 +24°C° 0.2 mm 1 mps 711 mmHg 67%
    14:00 +24°C° 0 mm 1 mps 710 mmHg 61%
    15:00 +25°C° 0 mm 1 mps 710 mmHg 56%
    16:00 +25°C° 0 mm 1 mps 710 mmHg 50%
    17:00 +24°C° 0.4 mm 1 mps 709 mmHg 59%
    18:00 +22°C° 0.4 mm 1 mps 709 mmHg 68%
    19:00 +20°C° 0.4 mm 1 mps 709 mmHg 76%
    20:00 +19°C° 0.1 mm 1 mps 709 mmHg 81%
    21:00 +19°C° 0.1 mm 1 mps 709 mmHg 86%
    22:00 +18°C° 0.1 mm 1 mps 709 mmHg 90%
    23:00 +18°C° 0 mm 1 mps 709 mmHg 91%

    Tomorrow, 23 March, Saturday

    Time Temperature Precipitation Wind Pressure Humidity
    00:00 +16°C° 0 mm 1 mps 709 mmHg 93%
    01:00 +16°C° 0 mm 1 mps 709 mmHg 94%
    02:00 +16°C° 0 mm 1 mps 708 mmHg 94%
    03:00 +15°C° 0 mm 1 mps 708 mmHg 95%
    04:00 +15°C° 0 mm 1 mps 708 mmHg 95%
    05:00 +15°C° 0 mm 1 mps 708 mmHg 95%
    06:00 +16°C° 0 mm 1 mps 708 mmHg 94%
    07:00 +16°C° 0 mm 1 mps 708 mmHg 93%
    08:00 +20°C° 0 mm 1 mps 708 mmHg 82%
    09:00 +22°C° 0 mm 1 mps 708 mmHg 70%
    10:00 +25°C° 0 mm 1 mps 708 mmHg 59%
    11:00 +26°C° 0 mm 2 mps 708 mmHg 54%
    12:00 +27°C° 0 mm 2 mps 708 mmHg 48%
    13:00 +29°C° 0 mm 3 mps 708 mmHg 43%
    14:00 +28°C° 0.1 mm 3 mps 707 mmHg 46%
    15:00 +27°C° 0.1 mm 3 mps 707 mmHg 50%
    16:00 +27°C° 0.1 mm 2 mps 706 mmHg 53%
    17:00 +25°C° 0 mm 2 mps 706 mmHg 59%
    18:00 +23°C° 0 mm 1 mps 706 mmHg 65%
    19:00 +22°C° 0 mm 1 mps 705 mmHg 71%
    20:00 +21°C° 0 mm 1 mps 706 mmHg 72%
    21:00 +21°C° 0 mm 1 mps 706 mmHg 74%
    22:00 +20°C° 0 mm 1 mps 706 mmHg 75%
    23:00 +18°C° 0 mm 0 mps 706 mmHg 77%

    Day after tomorrow, 24 March, Sunday

    Time Temperature Precipitation Wind Pressure Humidity
    00:00 +18°C° 0 mm 0 mps 706 mmHg 80%
    01:00 +17°C° 0 mm 0 mps 706 mmHg 82%
    02:00 +17°C° 0 mm 0 mps 706 mmHg 83%
    03:00 +16°C° 0 mm 0 mps 706 mmHg 84%
    04:00 +18°C° 0 mm 1 mps 706 mmHg 85%
    05:00 +19°C° 0 mm 1 mps 706 mmHg 80%
    06:00 +20°C° 0 mm 1 mps 707 mmHg 75%
    07:00 +20°C° 0 mm 1 mps 707 mmHg 69%
    08:00 +21°C° 0 mm 1 mps 708 mmHg 64%
    09:00 +22°C° 0 mm 1 mps 708 mmHg 59%
    10:00 +23°C° 0 mm 2 mps 709 mmHg 53%
    11:00 +25°C° 0 mm 2 mps 709 mmHg 48%
    12:00 +27°C° 0 mm 3 mps 708 mmHg 43%
    13:00 +29°C° 0 mm 4 mps 708 mmHg 37%
    14:00 +26°C° 1.6 mm 3 mps 708 mmHg 53%
    15:00 +22°C° 1.6 mm 3 mps 707 mmHg 68%
    16:00 +19°C° 1.6 mm 3 mps 707 mmHg 84%
    17:00 +19°C° 0.4 mm 2 mps 707 mmHg 85%
    18:00 +18°C° 0.4 mm 2 mps 707 mmHg 85%
    19:00 +19°C° 0.4 mm 1 mps 707 mmHg 85%
    20:00 +19°C° 0 mm 1 mps 707 mmHg 86%
    21:00 +19°C° 0 mm 1 mps 707 mmHg 86%
    22:00 +17°C° 0 mm 0 mps 707 mmHg 87%
    23:00 +16°C° 0 mm 0 mps 707 mmHg 88%

    25 March, Monday

    Time Temperature Precipitation Wind Pressure Humidity
    00:00 +16°C° 0 mm 0 mps 706 mmHg 89%
    01:00 +16°C° 0 mm 1 mps 705 mmHg 90%
    02:00 +18°C° 0.1 mm 1 mps 705 mmHg 88%
    03:00 +18°C° 0.1 mm 1 mps 705 mmHg 87%
    04:00 +19°C° 0.1 mm 1 mps 704 mmHg 85%
    05:00 +19°C° 0.8 mm 1 mps 705 mmHg 87%
    06:00 +18°C° 0.8 mm 2 mps 705 mmHg 89%
    07:00 +18°C° 0.8 mm 2 mps 705 mmHg 91%
    08:00 +20°C° 0.2 mm 4 mps 705 mmHg 84%
    09:00 +21°C° 0.2 mm 6 mps 705 mmHg 77%
    10:00 +23°C° 0.2 mm 7 mps 705 mmHg 70%
    11:00 +23°C° 0 mm 8 mps 705 mmHg 70%
    12:00 +22°C° 0 mm 8 mps 705 mmHg 71%
    13:00 +22°C° 0 mm 8 mps 704 mmHg 71%
    14:00 +22°C° 0 mm 8 mps 704 mmHg 72%
    15:00 +22°C° 0 mm 8 mps 704 mmHg 73%
    16:00 +22°C° 0 mm 9 mps 703 mmHg 74%
    17:00 +20°C° 0.2 mm 8 mps 704 mmHg 75%
    18:00 +17°C° 0.2 mm 7 mps 704 mmHg 76%
    19:00 +15°C° 0.2 mm 6 mps 705 mmHg 77%
    20:00 +15°C° 0.2 mm 5 mps 706 mmHg 77%
    21:00 +14°C° 0.2 mm 5 mps 706 mmHg 76%
    22:00 +13°C° 0.2 mm 4 mps 707 mmHg 75%
    23:00 +12°C° 0.1 mm 3 mps 707 mmHg 72%

    26 March, Tuesday

    Time Temperature Precipitation Wind Pressure Humidity
    00:00 +11°C° 0.1 mm 3 mps 707 mmHg 70%
    01:00 +10°C° 0.1 mm 2 mps 707 mmHg 67%
    02:00 +10°C° 0 mm 2 mps 708 mmHg 68%
    03:00 +9°C° 0 mm 2 mps 708 mmHg 68%
    04:00 +9°C° 0 mm 1 mps 708 mmHg 69%
    05:00 +9°C° 0 mm 1 mps 708 mmHg 68%
    06:00 +9°C° 0 mm 1 mps 709 mmHg 68%
    07:00 +9°C° 0 mm 1 mps 710 mmHg 68%
    08:00 +10°C° 0 mm 2 mps 710 mmHg 57%
    09:00 +14°C° 0 mm 2 mps 711 mmHg 47%
    10:00 +16°C° 0 mm 2 mps 711 mmHg 36%
    11:00 +18°C° 0 mm 3 mps 711 mmHg 33%
    12:00 +19°C° 0 mm 3 mps 711 mmHg 31%
    13:00 +21°C° 0 mm 3 mps 711 mmHg 28%
    14:00 +21°C° 0 mm 3 mps 711 mmHg 28%
    15:00 +21°C° 0 mm 3 mps 711 mmHg 28%
    16:00 +21°C° 0 mm 3 mps 711 mmHg 28%
    17:00 +19°C° 0 mm 3 mps 712 mmHg 37%
    18:00 +16°C° 0 mm 3 mps 712 mmHg 46%
    19:00 +13°C° 0 mm 3 mps 713 mmHg 55%
    20:00 +12°C° 0 mm 3 mps 713 mmHg 61%
    21:00 +12°C° 0 mm 2 mps 714 mmHg 66%
    22:00 +10°C° 0 mm 2 mps 715 mmHg 71%
    23:00 +9°C° 0 mm 2 mps 715 mmHg 72%

    27 March, Wednesday

    Time Temperature Precipitation Wind Pressure Humidity
    00:00 +9°C° 0 mm 2 mps 714 mmHg 73%
    01:00 +8°C° 0 mm 2 mps 714 mmHg 74%
    02:00 +8°C° 0 mm 2 mps 715 mmHg 76%
    03:00 +8°C° 0 mm 2 mps 715 mmHg 78%
    04:00 +7°C° 0 mm 2 mps 715 mmHg 80%
    05:00 +7°C° 0 mm 2 mps 715 mmHg 80%
    06:00 +8°C° 0 mm 2 mps 716 mmHg 80%
    07:00 +8°C° 0 mm 2 mps 716 mmHg 80%
    08:00 +12°C° 0 mm 2 mps 716 mmHg 70%
    09:00 +13°C° 0 mm 3 mps 717 mmHg 60%
    10:00 +17°C° 0 mm 3 mps 717 mmHg 50%
    11:00 +18°C° 0 mm 3 mps 717 mmHg 47%
    12:00 +19°C° 0 mm 3 mps 716 mmHg 44%
    13:00 +21°C° 0 mm 3 mps 716 mmHg 41%
    14:00 +20°C° 0 mm 3 mps 716 mmHg 46%
    15:00 +19°C° 0 mm 4 mps 715 mmHg 51%
    16:00 +19°C° 0 mm 4 mps 715 mmHg 56%
    17:00 +17°C° 0 mm 4 mps 715 mmHg 64%
    18:00 +14°C° 0 mm 3 mps 715 mmHg 73%
    19:00 +12°C° 0 mm 3 mps 715 mmHg 82%
    20:00 +13°C° 0 mm 2 mps 715 mmHg 86%
    21:00 +12°C° 0 mm 2 mps 716 mmHg 91%
    22:00 +11°C° 0 mm 1 mps 716 mmHg 95%
    23:00 +11°C° 0 mm 1 mps 715 mmHg 96%
    Show more